Weather History for Spokane, WA

Change the Weather History Date:

Monday, November 19, 2012

  Actual Average Record
Temperature  
Mean Temperature 42 °F 34 °F  
Max Temperature 49 °F 40 °F 60 °F (1936)
Min Temperature 34 °F 29 °F -9 °F (1985)
Degree Days  
Heating Degree Days 23 31  
Month to date heating degree days 476 517  
Since 1 July heating degree days 1082 1305  
Cooling Degree Days 0 0  
Month to date cooling degree days 0 0  
Year to date cooling degree days 535 450  
Moisture  
Dew Point 41 °F    
Average Humidity 88    
Maximum Humidity 100    
Minimum Humidity 76    
Precipitation  
Precipitation 0.84 in 0.08 in 1.24 in (1996)
Month to date precipitation 2.17 1.39  
Year to date precipitation 17.67 13.35  
Snow  
Snow 0.00 in 0.30 in 6.50 in (1897)
Month to date snowfall 5.9 3.4  
Since 1 July snowfall 5.9 3.5  
Since 1 September snowfall 5.9 3.5  
Snow Depth 0.00 in    
Sea Level Pressure  
Sea Level Pressure 29.77 in    
Wind  
Wind Speed 16 mph (SSE)    
Max Wind Speed 24 mph    
Max Gust Speed 35 mph    
Visibility 8 miles    
Events Rain    
T = Trace of Precipitation, MM = Missing Value Source: NWS Daily Summary

Daily Weather History Graph

Daily Weather History Graph

Search for Another Location

Airport:

Trip Planner

Search our weather history database for the weather conditions in past years. The results will help you decide how hot, cold, wet, or windy it might be!

Date:

Astronomy

Nov. 19, 2012 Rise Set
Actual Time 7:02 AM PST 4:08 PM PST
Civil Twilight 6:27 AM PST 4:42 PM PST
Nautical Twilight 5:50 AM PST 5:20 PM PST
Astronomical Twilight 5:13 AM PST 5:57 PM PST
Moon 11:57 AM PST 10:53 PM PST
Length of Visible Light 10h 14m
Length of Day
9h 06m
Waxing Crescent, 42% of the Moon is Illuminated
Nov 19
Waxing Crescent
Nov 20
First Quarter
Nov 28
Full
Dec 6
Last Quarter
Dec 13
New

Hourly Weather History & Observations

Time (PST) Temp. Windchill Dew Point Humidity Pressure Visibility Wind Dir Wind Speed Gust Speed Precip Events Conditions
12:53 AM 39.9 °F 32.9 °F 34.0 °F 79% 29.83 in 10.0 mi SSE 11.5 mph 20.7 mph 0.01 in Rain Light Rain
1:53 AM 39.9 °F 32.5 °F 35.1 °F 83% 29.83 in 10.0 mi South 12.7 mph 19.6 mph 0.00 in Rain Light Rain
2:22 AM 39.2 °F 32.0 °F 35.6 °F 87% 29.81 in 6.0 mi SSE 11.5 mph - 0.05 in Rain Rain
2:53 AM 39.9 °F 33.9 °F 39.0 °F 97% 29.85 in 7.0 mi South 9.2 mph 24.2 mph 0.11 in Rain Light Rain
3:53 AM 41.0 °F 34.7 °F 39.2 °F 93% 29.80 in 10.0 mi SSE 10.4 mph - N/A Rain Light Rain
4:53 AM 41.0 °F 33.9 °F 39.9 °F 96% 29.83 in 10.0 mi SSE 12.7 mph 24.2 mph 0.04 in Rain Light Rain
5:33 AM 39.2 °F 30.8 °F 39.2 °F 100% 29.79 in 7.0 mi SSE 15.0 mph 24.2 mph 0.01 in Rain Light Rain
5:53 AM 39.9 °F 31.4 °F 39.9 °F 100% 29.82 in 8.0 mi SSE 16.1 mph 24.2 mph 0.03 in Rain Light Rain
6:32 AM 39.2 °F 29.8 °F 39.2 °F 100% 29.79 in 5.0 mi SSE 18.4 mph 27.6 mph 0.03 in Rain Rain
6:53 AM 41.0 °F 32.5 °F 39.9 °F 96% 29.82 in 8.0 mi SSE 17.3 mph 24.2 mph 0.06 in Rain Light Rain
7:18 AM 39.2 °F 30.2 °F 39.2 °F 100% 29.79 in 6.0 mi SSE 17.3 mph 25.3 mph 0.03 in Rain Light Rain
7:53 AM 41.0 °F 33.1 °F 41.0 °F 100% 29.81 in 7.0 mi SSE 15.0 mph 24.2 mph 0.06 in Rain Light Rain
8:53 AM 42.1 °F 33.6 °F 42.1 °F 100% 29.81 in 8.0 mi SSE 18.4 mph 27.6 mph 0.04 in Rain Light Rain
9:53 AM 43.0 °F 34.8 °F 43.0 °F 100% 29.80 in 9.0 mi SSE 18.4 mph 25.3 mph 0.03 in Rain Light Rain
10:53 AM 48.0 °F - 41.0 °F 77% 29.77 in 10.0 mi SSE 18.4 mph 26.5 mph 0.01 in Rain Light Rain
11:53 AM 46.0 °F 39.0 °F 39.9 °F 79% 29.75 in 10.0 mi SSE 17.3 mph 25.3 mph 0.01 in Rain Light Rain
12:53 PM 48.0 °F - 39.9 °F 74% 29.72 in 10.0 mi SSE 20.7 mph 31.1 mph 0.00 in   Overcast
1:53 PM 48.0 °F - 39.9 °F 74% 29.70 in 10.0 mi SSE 19.6 mph 29.9 mph 0.00 in Rain Light Rain
2:53 PM 46.9 °F - 41.0 °F 80% 29.70 in 8.0 mi SSE 16.1 mph 28.8 mph 0.04 in Rain Light Rain
3:53 PM 46.9 °F - 42.1 °F 83% 29.69 in 7.0 mi South 19.6 mph 27.6 mph 0.05 in Rain Light Rain
4:53 PM 46.9 °F - 42.1 °F 83% 29.68 in 7.0 mi SSE 21.9 mph 29.9 mph 0.03 in Rain Light Rain
5:53 PM 48.0 °F - 42.1 °F 80% 29.68 in 10.0 mi South 16.1 mph 26.5 mph 0.00 in Rain Light Rain
6:53 PM 48.0 °F - 42.1 °F 80% 29.69 in 10.0 mi South 17.3 mph 27.6 mph 0.00 in Rain Light Rain
7:53 PM 48.9 °F - 43.0 °F 80% 29.72 in 10.0 mi South 17.3 mph 21.9 mph 0.01 in Rain Light Rain
8:18 PM 46.4 °F 40.1 °F 44.6 °F 93% 29.71 in 10.0 mi South 15.0 mph 20.7 mph 0.02 in Rain Light Rain
8:53 PM 46.0 °F 39.9 °F 45.0 °F 96% 29.73 in 4.0 mi SSW 13.8 mph - 0.05 in Rain Light Rain
9:16 PM 46.4 °F 40.1 °F 44.6 °F 93% 29.72 in 7.0 mi SSW 15.0 mph - 0.01 in Rain Light Rain
9:53 PM 46.0 °F 39.9 °F 45.0 °F 96% 29.75 in 4.0 mi SW 13.8 mph - 0.06 in Rain Rain
10:53 PM 46.0 °F 39.6 °F 44.1 °F 93% 29.77 in 7.0 mi SW 15.0 mph - 0.09 in Rain Light Rain
11:53 PM 45.0 °F 38.2 °F 44.1 °F 97% 29.78 in 9.0 mi South 15.0 mph 23.0 mph 0.05 in Rain Light Rain